Weather History for Denver, CO

Change the Weather History Date:

Tuesday, November 20, 2012

  Actual Average Record
Temperature  
Mean Temperature 50 °F 36 °F  
Max Temperature 68 °F 50 °F 72 °F (1897)
Min Temperature 32 °F 22 °F 1 °F (1975)
Degree Days  
Heating Degree Days 15 29  
Month to date heating degree days 412 490  
Since 1 July heating degree days 969 1071  
Cooling Degree Days 0 0  
Month to date cooling degree days 0 0  
Year to date cooling degree days 1236 769  
Moisture  
Dew Point 16 °F    
Average Humidity 30    
Maximum Humidity 48    
Minimum Humidity 12    
Precipitation  
Precipitation 0.00 in 0.02 in 0.95 in (1979)
Month to date precipitation 0.27 0.45  
Year to date precipitation 9.84 13.79  
Snow  
Snow 0.00 in - - ()
Month to date snowfall 1.7  
Since 1 July snowfall 7.2  
Since 1 September snowfall 7.2  
Snow Depth 0.00 in    
Sea Level Pressure  
Sea Level Pressure 30.09 in    
Wind  
Wind Speed 9 mph (SSW)    
Max Wind Speed 16 mph    
Max Gust Speed 20 mph    
Visibility 10 miles    
Events      
T = Trace of Precipitation, MM = Missing Value Source: NWS Daily Summary

Daily Weather History Graph

Daily Weather History Graph

Search for Another Location

Airport:

Trip Planner

Search our weather history database for the weather conditions in past years. The results will help you decide how hot, cold, wet, or windy it might be!

Date:

Astronomy

Nov. 20, 2012 Rise Set
Actual Time 6:49 AM MST 4:38 PM MST
Civil Twilight 6:20 AM MST 5:08 PM MST
Nautical Twilight 5:47 AM MST 5:41 PM MST
Astronomical Twilight 5:15 AM MST 6:13 PM MST
Moon 12:25 PM MST (11/20) No Moon Set
Length of Visible Light 10h 47m
Length of Day
9h 49m
First Quarter, 52% of the Moon is Illuminated
Nov 20
First Quarter
Nov 28
Full
Dec 6
Last Quarter
Dec 13
New
Dec 19
First Quarter

Hourly Weather History & Observations

Time (MST) Temp. Windchill Dew Point Humidity Pressure Visibility Wind Dir Wind Speed Gust Speed Precip Events Conditions
12:53 AM 37.4 °F 29.3 °F 19.4 °F 48% 30.22 in 10.0 mi SW 12.7 mph - N/A   Partly Cloudy
1:53 AM 39.9 °F 32.9 °F 17.1 °F 40% 30.16 in 10.0 mi SSW 11.5 mph - N/A   Partly Cloudy
2:53 AM 39.9 °F 33.9 °F 16.0 °F 38% 30.16 in 10.0 mi SW 9.2 mph - N/A   Partly Cloudy
3:53 AM 39.9 °F 33.9 °F 16.0 °F 38% 30.15 in 10.0 mi SSW 9.2 mph - N/A   Partly Cloudy
4:53 AM 35.1 °F 30.1 °F 16.0 °F 46% 30.20 in 10.0 mi SSW 5.8 mph - N/A   Partly Cloudy
5:53 AM 37.9 °F 30.5 °F 15.1 °F 39% 30.18 in 10.0 mi SSW 11.5 mph - N/A   Partly Cloudy
6:53 AM 43.0 °F 36.4 °F 12.9 °F 30% 30.20 in 10.0 mi SSW 12.7 mph - N/A   Partly Cloudy
7:53 AM 39.9 °F 33.4 °F 19.0 °F 43% 30.22 in 10.0 mi SSW 10.4 mph - N/A   Partly Cloudy
8:53 AM 50.0 °F - 17.1 °F 27% 30.19 in 10.0 mi SSW 11.5 mph - N/A   Partly Cloudy
9:53 AM 55.9 °F - 18.0 °F 23% 30.17 in 10.0 mi SW 8.1 mph - N/A   Partly Cloudy
10:53 AM 63.0 °F - 17.1 °F 17% 30.12 in 10.0 mi Variable 3.5 mph - N/A   Partly Cloudy
11:53 AM 64.9 °F - 14.0 °F 14% 30.06 in 10.0 mi SSW 4.6 mph - N/A   Partly Cloudy
12:53 PM 66.0 °F - 12.9 °F 13% 30.03 in 10.0 mi SSW 9.2 mph - N/A   Partly Cloudy
1:53 PM 68.0 °F - 14.0 °F 12% 29.99 in 10.0 mi South 8.1 mph - N/A   Partly Cloudy
2:53 PM 66.9 °F - 12.0 °F 12% 29.98 in 10.0 mi SSW 5.8 mph - N/A   Partly Cloudy
3:53 PM 64.0 °F - 19.0 °F 18% 29.99 in 10.0 mi SSE 4.6 mph - N/A   Partly Cloudy
4:53 PM 62.1 °F - 12.9 °F 15% 30.01 in 10.0 mi ESE 4.6 mph - N/A   Partly Cloudy
5:53 PM 46.0 °F 40.6 °F 18.0 °F 33% 30.07 in 10.0 mi SSE 11.5 mph - N/A   Partly Cloudy
6:53 PM 46.9 °F - 16.0 °F 29% 30.05 in 10.0 mi South 5.8 mph - N/A   Partly Cloudy
7:53 PM 48.0 °F - 16.0 °F 28% 30.06 in 10.0 mi SSW 12.7 mph - N/A   Partly Cloudy
8:53 PM 48.0 °F - 16.0 °F 28% 30.02 in 10.0 mi SW 13.8 mph - N/A   Partly Cloudy
9:53 PM 42.1 °F 36.6 °F 17.1 °F 37% 30.02 in 10.0 mi WSW 9.2 mph - N/A   Partly Cloudy
10:53 PM 42.1 °F 35.2 °F 17.1 °F 37% 29.98 in 10.0 mi WSW 12.7 mph - N/A   Partly Cloudy
11:53 PM 42.1 °F 40.2 °F 16.0 °F 35% 29.97 in 10.0 mi Variable 3.5 mph - N/A   Partly Cloudy